Location: Stonelick Lake State Park
(39.2170°N, 84.0850°W)
Time: 18:33:59
(UTC-04:00)

Daily predictions for brighter satellites

Satellite Brightness Start Highest point End
(mag) Time Altitude Azimuth Time Altitude Azimuth Time Altitude Azimuth
Cosmos 1538 Rocket 3.9 21:12:40 10° S 21:17:48 74° ESE 21:22:59 10° NNE
ISS -1.9 21:19:41 10° SSE 21:21:14 13° SE 21:22:46 10° E
BREEZE-M DEB (TANK) 4.2 21:18:24 10° WNW 21:22:19 86° NNE 21:36:07 10° ESE
USA 186 1.8 21:19:18 10° S 21:22:32 84° WSW 21:25:44 10° NNW
Cosmos 1666 4.5 21:21:42 10° NNE 21:24:09 16° ENE 21:26:34 10° ESE
OAO 2 Rocket 3.8 21:20:36 10° SW 21:25:11 39° SSE 21:29:50 10° E
Cosmos 2315 Rocket 4.1 21:19:55 10° S 21:26:11 84° E 21:32:32 10° N
CZ-3A R/B 3.0 21:27:26 10° S 21:31:00 15° SSE 21:33:03 10° ESE
Cosmos 1536 Rocket 3.7 21:27:49 10° S 21:32:00 53° E 21:36:14 10° NNE
Cosmos 1437 3.0 21:31:03 10° S 21:34:09 48° E 21:37:16 10° NNE
CZ-4B DEB 3.0 21:32:06 10° SSE 21:34:58 45° ENE 21:37:51 10° N
Helios 1A 3.0 21:30:52 10° SSE 21:35:04 73° ENE 21:39:18 10° N
Meteor 1-29 2.9 21:37:30 10° NNE 21:40:51 61° E 21:44:10 10° S
SJ-11-01 4.3 21:37:34 10° SSE 21:42:13 73° ENE 21:46:54 10° N
Cosmos 1656 Rocket 3.9 21:39:39 10° NNW 21:45:01 55° ENE 21:49:50 13° SE
YAOGAN 6 3.1 21:42:06 12° SE 21:45:05 41° ENE 21:48:24 10° N
SAR-Lupe-4 3.5 21:41:43 10° SSE 21:45:17 79° ENE 21:48:53 10° N
Cosmos 2369 Rocket 3.8 21:40:54 10° NW 21:45:54 33° WSW 21:50:53 10° SSW
ERS-1 Rocket 3.6 21:41:29 11° SE 21:45:54 39° ENE 21:50:33 10° N
Cosmos 1818 3.8 21:44:09 10° SW 21:49:34 77° WNW 21:55:03 10° NNE
Cosmos 1544 Rocket 4.0 21:46:02 10° NNW 21:50:19 61° W 21:54:34 10° S
Cosmos 405 Rocket 2.7 21:47:29 10° S 21:51:09 56° E 21:54:53 10° NNE
RESURS DK-1 4.2 21:47:20 10° SW 21:51:09 36° WNW 21:54:59 10° N
Resurs 01 Rocket 3.7 21:50:24 10° SSW 21:54:08 26° W 21:57:52 10° NW
NOSS 2-2 (D) 3.4 21:50:50 10° SSW 21:54:47 89° SE 21:59:16 10° NNE
H-2A R/B 3.7 21:52:51 11° E 21:55:43 17° ENE 21:58:51 10° NNE
Cosmos 1975 3.6 21:54:18 10° NNW 21:58:15 52° W 22:02:13 10° S
Cosmos 2112 Rocket 4.2 21:54:14 10° S 21:59:14 50° ESE 22:04:16 10° NNE
Cosmos 1943 Rocket 3.1 21:55:43 10° NW 22:01:03 46° WSW 22:06:19 10° S
Cosmos 1025 Rocket 3.9 21:58:33 17° SE 22:01:03 29° E 22:04:46 10° NNE
SAR-Lupe-1 4.2 21:58:35 10° S 22:02:04 72° WSW 22:05:40 10° NNW
CENTAUR R/B 3.2 21:54:18 10° NNW 22:02:18 80° NE 22:09:18 16° SE
USA 81 4.2 21:57:43 10° S 22:02:58 76° W 22:08:17 10° N
Cosmos 1441 Rocket 3.6 22:01:18 16° SSE 22:03:55 40° E 22:07:26 10° NNE
Meteor 1-13 Rocket 4.3 21:59:46 10° S 22:05:44 87° E 22:11:40 10° N
Nadezhda 1 Rocket 4.1 22:00:52 10° S 22:07:03 59° E 22:13:19 10° NNE
PSLV R/B 3.5 22:05:09 10° W 22:08:15 59° N 22:10:40 15° E
Helios 1B rocket 3.7 22:07:19 10° N 22:11:14 43° WNW 22:15:09 10° SW
NOAA 11 4.4 22:07:48 18° SE 22:11:49 56° ENE 22:17:07 10° N
Cosmos 1939 Rocket 3.7 22:08:28 10° S 22:12:12 47° W 22:15:57 10° NNW
NOSS 2-2 (C) 4.1 22:09:39 10° SW 22:13:36 58° NW 22:18:05 10° NNE
Cosmos 1455 Rocket 4.5 22:11:35 10° NNW 22:15:36 37° W 22:19:35 10° SSW
COSMOS 2406 3.2 22:09:53 10° SSW 22:15:38 87° WNW 22:21:23 10° NNE
Cosmos 2154 Rocket 4.4 22:10:23 10° N 22:16:28 46° ENE 22:20:26 21° SE
ARGOS 3.7 22:13:33 20° SE 22:16:54 45° ENE 22:22:02 10° N
COSMOS 2455 3.7 22:11:17 10° NW 22:16:59 46° WSW 22:22:27 11° S
SL-27 R/B 2.5 22:14:28 14° S 22:17:31 59° ESE 22:21:08 10° NNE
Cosmos 374 Rocket 4.2 22:14:36 10° NNW 22:18:23 87° NE 22:20:28 27° SE
Cosmos 1680 Rocket 3.5 22:17:34 10° SSW 22:22:48 83° WNW 22:28:03 10° NNE
SPOT 5 3.0 22:23:04 27° SE 22:25:03 46° ENE 22:29:12 10° N
Cosmos 1346 4.0 22:23:24 11° SSW 22:25:58 42° WNW 22:28:38 10° N
H-2A R/B 4.1 22:24:49 14° E 22:26:15 15° ENE 22:28:52 10° NNE
Cosmos 2056 Rocket 4.5 22:22:18 10° N 22:26:55 32° ENE 22:29:09 23° ESE
Cosmos 2082 Rocket 3.7 22:28:02 17° E 22:28:02 17° E 22:31:21 10° ENE
Cosmos 1743 3.7 22:25:44 10° NNW 22:29:27 44° W 22:32:38 13° SSW
Cosmos 405 2.9 22:30:18 10° N 22:33:52 71° E 22:34:56 41° SSE
ASTRO E2 4.0 22:35:09 10° WSW 22:38:11 23° SSW 22:38:11 23° SSW
Terra 3.3 22:37:11 19° E 22:38:34 22° ENE 22:42:11 10° NNE
ASTEX 1 3.8 22:36:30 15° S 22:40:29 61° W 22:45:20 10° NNW
MetOp-B 4.1 22:40:01 25° S 22:43:17 83° WSW 22:48:41 10° NNW
Cosmos 2341 Rocket 4.2 22:38:23 10° N 22:44:37 56° E 22:47:39 30° SE
Tiangong 2 0.9 22:41:54 10° WSW 22:45:05 88° S 22:45:36 59° ENE
SPOT 1/Viking Rocket 3.7 22:44:17 33° SE 22:46:26 58° ENE 22:51:31 10° N
Cosmos 1437 Rocket 2.7 22:44:58 10° N 22:48:45 61° E 22:49:24 51° SE
Okean 1-7 Rocket 3.9 22:46:16 17° SSW 22:49:40 64° W 22:54:08 10° N
Okean 2 3.3 22:50:04 35° S 22:51:44 89° WNW 22:55:50 10° N
Cosmos 1238 Rocket 4.5 22:46:51 10° SSW 22:53:30 67° W 23:00:07 10° N
Cosmos 1697 Rocket 4.4 22:50:02 10° N 22:54:05 20° NE 22:56:25 16° E
Aureole 1 Rocket 4.1 22:52:26 10° SW 22:55:30 30° WNW 22:58:15 10° N
ISS -3.4 22:54:04 10° WSW 22:57:20 63° NW 23:00:37 10° NE
Cosmos 1666 4.5 22:56:38 10° NNW 22:59:50 27° W 23:01:55 17° SW
Cosmos 1892 Rocket 3.5 23:01:37 50° SSE 23:02:41 73° E 23:07:07 10° NNE
DNEPR-1 R/B 4.1 22:59:11 10° NW 23:03:20 50° WSW 23:04:38 38° SSW
Cosmos 1371 Rocket 4.0 23:00:59 10° NNW 23:06:19 84° WSW 23:08:06 43° SSE
Cosmos 2228 3.4 23:02:30 10° N 23:06:40 45° E 23:06:54 45° E
OAO 2 Rocket 3.3 23:04:47 10° WSW 23:09:37 53° S 23:10:00 52° SSE
Cosmos 1833 Rocket 3.2 23:11:23 37° ESE 23:11:25 37° ESE 23:16:33 10° NE
deb Chang Zheng 4 4.3 23:07:59 10° NNE 23:11:27 36° E 23:11:27 36° E
Cosmos 921 Rocket 3.2 23:08:00 10° N 23:12:26 56° ENE 23:12:53 53° E
Cosmos 1656 4.4 23:09:51 10° N 23:14:55 38° ENE 23:16:17 33° E
USA 245 4.3 23:16:10 28° WNW 23:16:10 28° WNW 23:17:56 10° NW
Cosmos 1066 Rocket 4.3 23:15:05 47° SE 23:16:03 53° E 23:21:28 10° NNE
Cosmos 2181 Rocket 4.0 23:13:07 31° S 23:16:24 88° E 23:22:45 10° N
Cosmos 1606 Rocket 3.8 23:13:40 10° NNW 23:17:56 62° W 23:18:50 49° SW
SL-19 R/B 4.1 23:16:57 10° NNE 23:22:14 56° ESE 23:22:50 53° SE
CZ-4 R/B 4.3 23:21:46 10° NNE 23:26:30 47° E 23:26:30 47° E
Cosmos 1515 4.4 23:28:01 44° WSW 23:28:31 47° W 23:32:12 10° N
Cosmos 1726 Rocket 3.9 23:24:38 10° NNW 23:28:53 56° W 23:29:29 51° SW
Meteor 1-4 Rocket 3.7 23:27:50 10° N 23:30:20 35° NE 23:30:20 35° NE
USA 267 3.3 23:26:45 10° NE 23:33:04 50° SE 23:34:02 47° SSE
H-2A R/B 2.4 23:33:29 43° SW 23:34:39 54° W 23:39:33 10° NNW
Cosmos 2058 Rocket 3.1 23:31:09 10° NNW 23:35:32 67° W 23:35:51 64° SW
CARTOSAT-1 3.4 23:36:39 85° NE 23:36:39 85° NE 23:40:56 10° NNW
Cosmos 1980 Rocket 3.5 23:36:19 10° N 23:41:08 28° ENE 23:42:26 25° E
DMSP B5D2-2 4.4 23:40:35 10° N 23:45:49 63° WNW 23:47:34 40° SW
SeaSat 1 4.3 23:46:39 18° ENE 23:47:54 20° NE 23:51:26 10° N
Cosmos 864 Rocket 4.4 23:44:04 10° N 23:50:24 79° E 23:51:34 60° SSE
